Find OneWeb SL0067

NORAD ID: 45425 Int'l Des: 2020-020 Owner: ONEWEB Country: UK Constellation: oneweb operational
LEOCIRCULARPOLARONEWEB_TYPE

Live Position

Loading 3D Globe...

About OneWeb SL0067

Description loading...

Upcoming Passes

Passes for default location (London). Set your location on the main map for personalized predictions.

Altitude History

Loading altitude history...

Two-Line Element Set

1 45425U 20020B 26125.76376402 -.00000436 00000-0 -12662-2 0 9999
2 45425 87.8943 29.4216 0001881 87.0380 273.0963 13.11422543297171
Epoch: May 5, 2026 • Age: 11 hours

Current Status

Altitude 1226.4 km
Velocity 7.24 km/s
Sub-Earth Point -22.12°S, 86.32°E
Launch Date Mar 21, 2020
Age 6.1 years
Type internet

Technical Details

Classification Payload
Mass 148.00 kg
Dry Mass 140.00 kg
Total Mass 148.00 kg
Length 1.30 m
Diameter 1.00 m
Span 5.00 m
Shape Trapezoid+2 pan
Manufacturer ONEWUS
Bus Type ARROW
Phase Status In Orbit
Owner/State ONEWEB/UK

Most Searched